Location: ????????
(55.0559°N, 39.1270°E)
Time: 01:31:37
(UTC+00:00)

Cosmos 2360 Rocket - Pass Details

Date: 15 November 2025
Orbit: 833 x 843 km, 71.0° (Epoch: 12 December)

Event Time Altitude Azimuth Distance (km) Brightness Sun altitude
Exits shadow 03:52:49 - 317° (NW) 2,671 4.3 -8.9°
Reaches altitude 10° 03:53:41 10° 323° (NW) 2,473 4.1 -8.8°
Maximum altitude 03:57:05 16° 0° (N) 2,081 4.1 -8.4°
Drops below altitude 10° 04:00:29 10° 38° (NE) 2,470 4.9 -7.9°
Sets 04:03:59 0° 60° (ENE) 3,402 5.9 -7.4°
